Regional Weather Roundup
Issued by NWS

Home | Current Version | Previous Version | Text Only | Print | Product List | Glossary On
Versions: 1 2 3 4 5 6 7 8 9 10 11 12 13 14 15 16 17 18 19 20 21 22 23 24 25 26 27 28 29 30 31 32 33 34 35 36 37 38 39 40 41 42 43 44 45 46 47 48 49 50
000
ASUS43 KLSX 300307
RWRMO

WEATHER SUMMARY FOR MISSOURI
NATIONAL WEATHER SERVICE SPRINGFIELD MO
1000 PM CDT FRI MAY 29 2015

NOTE: "FAIR" INDICATES FEW OR NO CLOUDS BELOW 12,000 FEET WITH NO
       SIGNIFICANT WEATHER AND/OR OBSTRUCTIONS TO VISIBILITY.
       CURRENT SKY AND/OR WEATHER CONDITIONS ARE NOT AVAILABLE FOR
       CHILLICOTHE AND FARMINGTON.

MOZ001>031-035>038-043-044-053-054-300400-
...NORTHERN AND WESTERN MISSOURI...

CITY           SKY/WX    TMP DP  RH WIND       PRES   REMARKS
KANSAS CTY INT CLOUDY    64  63  96 S6        29.98R
KANSAS C DTWN  CLOUDY    67  63  87 CALM      29.97R
LEE`S SUMMIT   CLOUDY    65  64  97 SE3       29.99R
ST JOSEPH      CLOUDY    67  64  90 S7        29.96R
CHILLICOTHE      N/A     67  65  93 CALM      29.99R
KIRKSVILLE     CLOUDY    68  66  93 CALM      29.99R

$$
MOZ066>068-077>081-088>096-101>105-300400-
...SOUTHWEST MISSOURI...

CITY           SKY/WX    TMP DP  RH WIND       PRES   REMARKS
SPRINGFIELD    LGT RAIN  67  66  97 SE5       29.97R
JOPLIN         CLOUDY    63  62  97 NW5       29.95S

$$
MOZ032>034-039>042-045>050-055>058-069>072-300400-
...CENTRAL MISSOURI...

CITY           SKY/WX    TMP DP  RH WIND       PRES   REMARKS
COLUMBIA       RAIN      68  66  93 E6        29.99S
JEFFERSON CITY LGT RAIN  68  66  93 CALM      29.98S
ROLLA          CLOUDY    67  66  97 E7        29.96F
SEDALIA        LGT RAIN  67  63  87 N3        29.98R
WHITEMAN AFB   MOCLDY    66  64  94 E2        29.96S
WARRENSBURG    CLOUDY    64  63  94 CALM      29.97R
OSAGE BEACH    CLOUDY    66  64  94 NW5       29.99R

$$
MOZ051-052-059>065-300400-
...EAST CENTRAL MISSOURI...

CITY           SKY/WX    TMP DP  RH WIND       PRES   REMARKS
ST LOUIS INTL  CLOUDY    75  67  76 SE8       29.99S
SPIRIT OF STL  LGT RAIN  73  71  93 E7        29.97S FOG
ST CHARLES     CLOUDY    74  70  87 SE6       29.97S

$$
MOZ072>076-082>087-097>100-106>115-300400-
...SOUTH CENTRAL AND SOUTHEAST MISSOURI...

CITY           SKY/WX    TMP DP  RH WIND       PRES   REMARKS
CAPE GIRARDEAU CLOUDY    77  69  76 S5        30.01R
FARMINGTON     CLOUDY    68  66  94 SE5       30.05S
POPLAR BLUFF   MOCLDY    75  69  81 SE5       29.99R
WEST PLAINS    CLOUDY    70  67  90 VRB5      29.99R THUNDER

$$



USA.gov is the U.S. government's official web portal to all federal, state and local government web resources and services.